Wind_Speed
33 31 32 31 29 28 27 27 24 23 22 21 19 17 17 18 20 20 17 16 15 15 15 14 13 10 8 7 5 7 11 13 15 15 19 19 19 23 24 29 26 24 24
31 32 32 30 30 29 28 27 24 23 23 22 20 18 18 18 19 22 19 17 17 16 16 15 15 15 14 14 13 11 10 15 17 16 18 21 22 21 20 23 29 26 26
29 28 29 30 29 29 28 27 25 24 24 23 21 20 19 18 19 22 22 18 17 16 15 16 17 19 20 20 21 18 16 13 17 21 20 20 21 20 22 21 23 27 26
29 30 29 29 30 29 28 27 25 24 24 24 21 20 21 19 21 24 23 21 19 18 18 18 20 22 23 25 23 22 19 17 16 20 21 22 24 24 26 26 26 26 26
29 29 29 30 29 28 27 26 25 25 25 23 21 21 22 20 24 28 24 24 22 22 21 19 22 25 26 26 27 27 20 18 17 19 22 24 25 26 28 29 29 28 27
29 30 31 31 29 27 26 25 25 25 24 22 21 22 21 26 28 29 26 27 23 22 22 21 24 26 28 28 26 25 22 19 19 20 25 27 25 24 27 30 32 31 30
25 26 25 25 26 27 27 26 25 25 23 23 23 24 31 27 30 29 28 29 23 22 22 23 26 27 27 29 27 25 22 22 20 19 22 26 27 29 29 31 32 34 31
20 21 23 23 24 25 25 26 27 25 24 25 26 28 29 28 30 30 30 29 20 22 23 24 29 30 30 29 26 24 23 20 22 21 20 19 25 32 33 35 35 34 32
20 20 22 24 26 27 27 27 27 27 28 29 28 34 32 34 31 32 33 25 22 23 29 25 31 32 31 30 26 24 20 22 23 22 23 21 23 29 34 35 34 32 29
20 22 23 24 27 28 29 29 29 30 33 32 36 38 35 30 33 34 31 28 26 27 28 28 32 33 31 28 27 26 24 25 25 23 23 22 24 27 28 36 34 29 30
29 28 27 26 28 29 31 31 34 37 36 37 33 32 32 30 35 35 30 31 24 32 27 30 33 33 29 27 26 26 27 24 25 22 24 19 21 24 23 28 30 27 29
34 31 29 28 29 30 32 34 35 37 35 32 32 31 30 37 39 37 36 27 32 29 28 31 32 31 28 26 26 27 26 24 25 23 23 20 19 22 22 22 24 29 29
37 34 33 32 31 33 33 35 35 36 33 31 31 32 33 33 38 36 32 32 33 26 29 31 31 29 26 26 27 25 24 24 24 23 25 23 21 22 22 23 27 30 31
41 40 39 37 36 35 37 38 37 36 33 35 35 35 35 37 40 39 34 36 28 27 28 30 30 27 26 25 26 26 23 24 25 25 24 25 24 22 21 25 28 29 31
44 44 40 39 40 40 40 40 40 35 35 38 38 39 39 39 42 42 36 34 28 29 30 32 32 26 25 25 25 25 25 21 21 24 26 27 25 24 23 26 29 30 29
48 48 44 44 42 43 42 41 38 36 37 39 41 39 41 41 42 40 33 31 33 32 32 34 30 26 26 24 24 24 25 22 22 25 24 25 25 25 24 25 27 28 30
53 54 50 47 48 45 45 40 37 39 37 41 41 39 41 42 42 37 34 34 34 32 34 33 28 25 26 25 24 24 25 25 23 20 20 20 22 24 25 24 25 26 26
60 59 55 54 51 50 50 38 42 39 40 41 40 42 43 47 43 36 35 33 31 32 32 31 28 26 25 26 24 24 25 27 29 29 27 26 25 24 25 25 24 27 27
65 63 59 57 54 54 46 45 43 42 44 42 41 42 43 45 41 36 35 33 31 30 29 29 28 26 26 26 26 25 24 24 27 28 29 29 30 31 32 32 29 27 29
64 62 61 59 54 49 48 44 42 44 44 42 41 40 40 41 38 36 36 32 31 29 29 29 28 28 28 28 28 28 26 24 24 25 24 25 25 26 30 33 34 35 35
63 59 60 57 51 48 44 41 43 44 41 40 38 35 35 37 38 37 35 32 31 31 31 29 30 30 30 29 29 29 29 28 27 27 27 27 29 29 27 27 29 28 30
59 55 55 55 53 47 41 43 45 42 40 36 35 33 36 37 40 40 34 33 33 33 33 32 31 32 31 30 31 31 31 31 30 30 29 29 29 30 30 31 31 31 34
52 50 49 48 46 43 47 43 41 41 37 37 36 37 40 42 42 36 35 34 34 33 34 33 32 32 32 32 32 32 32 32 33 33 34 35 35 35 35 35 35 37 38
49 43 39 40 43 47 45 45 37 36 40 38 39 41 43 41 35 32 30 32 35 34 33 32 31 32 33 34 34 34 35 37 37 38 38 39 40 41 41 41 42 42 43
48 43 42 46 47 43 40 33 36 40 41 43 43 40 31 26 25 26 29 31 31 30 29 29 30 31 32 33 34 36 37 38 40 40 41 42 43 43 44 45 45 46 47
40 44 47 42 39 38 37 40 41 42 40 35 27 23 22 23 23 25 26 26 26 26 27 27 28 29 30 32 34 35 37 37 38 39 40 42 44 46 47 48 49 50 51
Wind_Direction
249 251 254 257 259 265 270 273 277 280 281 286 286 285 292 306 312 304 284 276 274 277 281 286 294 304 312 314 303 248 244 239 246 242 238 239 244 246 252 244 244 250 245
244 247 251 256 260 262 264 268 272 276 277 279 281 280 288 302 309 305 286 277 274 269 271 278 284 287 291 294 292 286 264 249 252 256 258 259 250 241 241 245 240 248 248
244 245 247 251 255 258 262 267 269 270 272 276 277 275 287 297 308 303 285 275 270 266 268 273 280 286 288 291 291 290 287 274 255 254 253 249 251 256 248 238 238 242 256
247 249 250 252 255 258 262 264 265 268 270 274 274 276 286 293 304 300 280 268 262 264 270 274 278 283 288 290 291 289 281 270 258 250 249 249 246 251 252 251 251 253 261
247 249 250 252 256 259 261 262 265 267 269 272 273 279 285 295 299 296 280 264 263 263 268 271 280 287 292 293 293 289 279 271 264 253 250 249 251 251 248 248 253 260 266
246 249 251 254 256 256 260 264 266 267 271 274 280 283 288 286 291 292 280 265 258 264 266 273 284 292 295 295 289 284 278 269 261 255 249 248 247 250 252 250 254 258 258
252 256 259 260 260 260 260 263 262 266 271 274 273 274 284 286 289 288 277 267 256 263 266 283 293 294 295 295 292 284 271 269 266 266 263 256 247 242 252 251 254 260 260
245 253 261 265 264 264 261 262 266 264 265 269 271 275 278 289 293 285 276 264 253 262 276 280 292 295 295 292 292 278 282 264 268 267 262 265 266 243 243 251 253 258 262
238 244 249 254 259 262 263 263 266 269 271 272 271 281 280 290 290 282 272 253 250 268 269 286 293 295 295 293 293 285 281 264 262 270 262 261 261 260 242 249 254 259 264
231 236 241 249 256 260 264 266 268 273 275 271 275 281 284 287 290 278 265 256 249 272 268 289 292 293 292 294 289 286 280 268 260 269 255 258 266 260 259 246 247 256 264
226 230 235 243 252 257 262 267 272 280 286 285 281 280 285 285 282 271 260 261 271 274 276 287 290 291 291 289 287 285 281 269 253 264 258 255 259 261 266 263 252 251 260
227 229 230 236 244 251 258 265 272 277 282 285 280 280 277 290 276 269 265 261 268 272 283 286 289 288 288 287 284 283 279 269 251 252 261 254 261 262 257 252 246 254 260
226 226 230 233 240 249 256 262 268 272 278 281 278 278 278 281 279 271 268 265 268 275 282 284 286 286 285 285 286 283 281 268 249 249 252 254 256 258 254 251 253 256 261
225 227 227 232 238 245 252 257 261 264 271 271 271 274 274 277 277 277 265 266 264 275 282 286 287 283 282 283 284 283 277 268 251 245 255 254 258 259 258 254 256 259 262
229 232 229 233 238 244 249 254 256 259 263 269 269 270 271 272 273 279 274 271 264 274 278 282 282 278 279 279 281 281 274 261 253 252 252 253 256 257 262 258 257 257 261
229 230 232 233 237 242 248 251 256 258 257 264 270 269 266 266 269 276 275 265 261 267 274 278 278 275 278 278 278 274 269 257 252 256 255 258 256 260 263 263 258 255 260
230 229 230 233 238 240 245 250 254 255 256 258 266 267 265 262 264 274 267 261 262 265 271 275 271 272 276 277 277 274 263 250 249 256 261 261 258 260 265 265 259 260 260
229 228 228 233 235 238 242 244 245 248 251 255 259 263 263 262 262 265 262 256 256 265 269 271 266 267 271 275 274 275 269 256 252 256 261 262 263 265 266 265 263 259 259
230 229 230 232 236 240 244 241 242 246 249 253 257 261 265 267 261 258 256 246 256 262 267 269 264 264 266 268 270 269 268 264 260 262 262 261 263 266 267 268 271 271 270
231 232 232 234 236 239 241 244 242 246 249 251 255 261 263 264 255 254 243 245 255 260 268 268 263 262 261 264 266 266 266 266 265 266 268 272 274 277 274 269 265 266 268
233 236 238 239 241 239 241 238 245 248 249 252 255 253 254 251 248 239 236 247 251 259 267 265 260 258 258 259 261 264 265 264 265 265 266 270 274 276 282 276 271 270 270
233 236 240 241 241 245 240 248 249 244 246 246 251 246 247 245 240 234 235 242 250 260 264 265 261 257 256 259 260 259 260 261 263 265 268 271 274 277 278 275 271 269 272
226 230 237 241 236 237 241 245 246 245 242 244 242 242 245 237 233 232 237 248 256 260 263 262 259 257 257 260 261 260 259 260 262 266 269 272 275 276 277 277 276 275 275
225 230 237 234 231 233 239 245 239 240 239 241 244 244 235 228 233 241 250 257 259 260 261 262 262 260 259 261 262 262 264 266 268 270 272 274 275 276 276 276 276 277 277
225 229 236 232 227 231 232 226 230 236 240 240 233 230 230 239 248 254 257 259 259 260 262 264 265 265 266 268 270 272 272 274 275 275 276 277 277 277 278 278 277 276 276
218 221 228 234 229 221 221 225 231 234 234 229 230 238 245 249 248 250 252 255 259 263 265 268 270 271 274 276 277 277 278 279 280 282 283 284 284 284 283 283 283 282 281
Height
5746 5748 5750 5752 5753 5754 5754 5755 5755 5756 5755 5755 5754 5753 5753 5751 5748 5747 5745 5744 5743 5743 5744 5743 5741 5739 5739 5739 5739 5739 5739 5739 5738 5736 5736 5736 5735 5736 5736 5737 5736 5736 5737
5736 5739 5741 5744 5746 5747 5747 5748 5748 5749 5750 5749 5749 5749 5748 5747 5745 5743 5742 5740 5739 5739 5739 5739 5739 5737 5736 5735 5735 5735 5735 5735 5736 5735 5734 5734 5733 5732 5732 5733 5734 5734 5735
5728 5730 5732 5735 5737 5739 5740 5741 5742 5743 5744 5743 5744 5744 5743 5742 5741 5739 5738 5737 5736 5735 5735 5735 5734 5734 5733 5731 5730 5730 5730 5730 5730 5729 5729 5729 5729 5729 5730 5730 5730 5731 5731
5721 5724 5726 5728 5729 5731 5733 5734 5735 5737 5737 5738 5739 5739 5738 5738 5736 5735 5733 5732 5732 5731 5731 5731 5730 5729 5728 5726 5725 5724 5724 5724 5724 5724 5724 5725 5725 5725 5725 5726 5726 5727 5727
5714 5717 5719 5720 5722 5724 5726 5727 5728 5730 5731 5733 5733 5733 5733 5733 5732 5730 5728 5727 5727 5727 5727 5727 5726 5724 5722 5720 5719 5718 5718 5718 5718 5718 5718 5719 5720 5720 5720 5721 5721 5721 5721
5707 5710 5712 5714 5716 5717 5719 5721 5722 5724 5725 5727 5728 5728 5728 5727 5725 5724 5722 5721 5721 5722 5722 5722 5721 5719 5717 5715 5714 5712 5711 5712 5712 5712 5712 5712 5713 5713 5714 5715 5715 5716 5717
5700 5703 5705 5708 5710 5711 5713 5715 5716 5718 5719 5720 5721 5721 5721 5720 5719 5716 5715 5714 5714 5716 5716 5716 5715 5714 5711 5708 5706 5705 5705 5704 5705 5706 5706 5706 5706 5707 5708 5708 5709 5709 5710
5693 5696 5699 5701 5703 5705 5707 5709 5711 5711 5712 5714 5714 5714 5713 5712 5711 5709 5709 5708 5708 5710 5710 5709 5709 5707 5705 5702 5700 5700 5699 5699 5699 5699 5699 5699 5699 5700 5701 5701 5701 5703 5703
5686 5688 5690 5692 5695 5698 5700 5702 5703 5705 5706 5706 5707 5706 5705 5704 5703 5702 5701 5700 5702 5704 5703 5702 5701 5699 5697 5694 5693 5692 5692 5692 5692 5692 5692 5692 5693 5693 5694 5694 5695 5696 5698
5677 5680 5682 5684 5687 5690 5692 5694 5695 5696 5698 5698 5698 5698 5697 5695 5695 5694 5694 5694 5695 5696 5695 5695 5693 5692 5690 5687 5685 5684 5685 5684 5685 5685 5685 5685 5685 5686 5687 5687 5688 5690 5691
5665 5668 5672 5676 5679 5680 5683 5685 5687 5688 5689 5689 5688 5689 5688 5687 5687 5687 5686 5687 5689 5688 5688 5688 5686 5685 5682 5680 5679 5677 5677 5677 5678 5679 5679 5677 5678 5680 5680 5681 5682 5683 5684
5655 5658 5662 5665 5668 5670 5673 5675 5677 5678 5680 5680 5680 5680 5680 5680 5679 5679 5678 5680 5680 5680 5680 5680 5678 5677 5675 5673 5671 5670 5670 5670 5671 5673 5674 5673 5673 5673 5674 5674 5675 5676 5677
5644 5649 5652 5655 5658 5661 5663 5665 5667 5669 5671 5671 5672 5672 5672 5671 5673 5671 5672 5672 5672 5673 5673 5672 5670 5669 5667 5666 5664 5664 5663 5663 5665 5666 5667 5667 5667 5666 5667 5668 5669 5670 5670
5633 5637 5640 5644 5647 5650 5653 5655 5657 5660 5662 5662 5663 5664 5664 5665 5665 5664 5664 5665 5666 5666 5665 5664 5663 5661 5660 5658 5658 5657 5656 5656 5658 5660 5661 5661 5661 5660 5660 5661 5662 5662 5663
5620 5625 5629 5632 5636 5639 5642 5644 5646 5650 5652 5652 5653 5654 5655 5656 5657 5657 5657 5658 5658 5658 5658 5657 5655 5653 5652 5651 5650 5650 5649 5650 5651 5652 5654 5654 5654 5654 5654 5654 5654 5654 5656
5606 5612 5617 5621 5624 5627 5630 5632 5637 5639 5639 5641 5642 5643 5644 5646 5647 5649 5649 5649 5650 5650 5651 5650 5648 5646 5645 5644 5643 5643 5643 5643 5644 5645 5646 5647 5647 5648 5648 5647 5647 5647 5648
5592 5598 5603 5608 5612 5615 5617 5622 5626 5626 5629 5629 5631 5633 5634 5635 5638 5640 5639 5640 5641 5642 5642 5641 5640 5639 5639 5638 5637 5637 5637 5637 5639 5640 5641 5641 5641 5642 5642 5640 5640 5640 5641
5577 5583 5588 5593 5597 5601 5604 5610 5612 5615 5616 5618 5619 5622 5623 5624 5626 5629 5630 5631 5632 5634 5633 5632 5631 5631 5631 5632 5632 5631 5631 5631 5632 5633 5634 5635 5635 5635 5635 5635 5634 5634 5634
5562 5568 5574 5579 5583 5589 5595 5597 5600 5602 5604 5606 5607 5609 5612 5614 5617 5617 5619 5622 5623 5624 5624 5624 5624 5624 5624 5624 5625 5625 5624 5624 5624 5625 5626 5627 5627 5628 5627 5627 5628 5627 5627
5551 5556 5561 5565 5570 5576 5581 5586 5589 5589 5591 5594 5596 5598 5601 5604 5606 5608 5610 5612 5614 5615 5615 5615 5615 5616 5617 5617 5617 5618 5619 5618 5618 5619 5619 5619 5619 5618 5618 5618 5618 5618 5618
5537 5545 5551 5555 5560 5564 5568 5573 5576 5577 5580 5582 5584 5585 5589 5593 5595 5597 5599 5602 5603 5605 5606 5606 5607 5607 5608 5609 5610 5611 5611 5611 5612 5612 5612 5611 5611 5610 5609 5608 5608 5608 5609
5523 5531 5538 5544 5549 5555 5558 5561 5562 5566 5569 5571 5573 5575 5578 5581 5584 5587 5589 5592 5593 5594 5595 5596 5597 5599 5600 5600 5601 5602 5603 5603 5603 5604 5604 5604 5603 5602 5602 5601 5600 5600 5600
5510 5518 5525 5532 5538 5543 5546 5549 5553 5556 5558 5560 5563 5566 5568 5571 5574 5577 5579 5582 5584 5585 5586 5587 5587 5589 5590 5591 5592 5593 5594 5594 5594 5594 5594 5594 5594 5593 5593 5592 5592 5591 5589
5500 5507 5514 5521 5526 5530 5534 5539 5543 5546 5549 5551 5553 5556 5559 5562 5565 5568 5570 5573 5575 5576 5577 5578 5578 5579 5581 5582 5583 5584 5584 5585 5585 5584 5583 5583 5583 5582 5581 5580 5580 5579 5578
5489 5498 5504 5509 5513 5518 5523 5527 5533 5536 5539 5542 5544 5547 5550 5553 5556 5559 5562 5564 5565 5567 5567 5568 5569 5571 5572 5573 5574 5575 5575 5575 5575 5574 5574 5572 5571 5570 5569 5567 5566 5565 5564
5478 5486 5492 5494 5500 5505 5512 5518 5522 5526 5531 5534 5537 5539 5542 5545 5548 5551 5552 5554 5556 5557 5558 5559 5561 5562 5562 5563 5563 5564 5564 5564 5563 5562 5562 5561 5560 5558 5556 5554 5552 5550 5548